North Las Vegas, NV

8:33 AM PDT on August 27, 2016 (GMT -0700)
North Las Vegas

Weather History for KVGT - December, 2013

Change the Weather History Date:

Monday, December 30, 2013

  Actual Average Record
Temperature  
Mean Temperature 46 °F 46 °F  
Max Temperature 57 °F 55 °F 64 °F (2011)
Min Temperature 36 °F 37 °F 12 °F (1990)
Degree Days  
Heating Degree Days 18 19  
Month to date heating degree days 543  
Since 1 July heating degree days 856  
Cooling Degree Days 0 0  
Month to date cooling degree days 0  
Year to date cooling degree days 3294  
Moisture  
Dew Point 12 °F    
Average Humidity 27    
Maximum Humidity 43    
Minimum Humidity 14    
Precipitation  
Precipitation 0.00 in 0.04 in 0.26 in (2003)
Month to date precipitation 0.54  
Year to date precipitation 5.34  
Sea Level Pressure  
Sea Level Pressure 30.34 in    
Wind  
Wind Speed 2 mph (NW)    
Max Wind Speed 6 mph    
Max Gust Speed -    
Visibility 10 miles    
Events      
T = Trace of Precipitation, MM = Missing Value Source: NWS Daily Summary

Daily Weather History Graph

Daily Weather History Graph

Search for Another Location

Airport or City:

Trip Planner

Search our weather history database for the weather conditions in past years. The results will help you decide how hot, cold, wet, or windy it might be!

Date:

Astronomy

Dec. 30, 2013 Rise Set
Actual Time 6:51 AM PST 4:35 PM PST
Civil Twilight 6:23 AM PST 5:04 PM PST
Nautical Twilight 5:50 AM PST 5:36 PM PST
Astronomical Twilight 5:19 AM PST 6:07 PM PST
Moon 4:47 AM PST (12/30) 3:11 PM PST (12/30)
Length of Visible Light 10h 41m
Length of Day
9h 43m
Waning Crescent, 4% of the Moon is Illuminated
Dec 30
Waning Crescent
Jan 1
New
Jan 7
First Quarter
Jan 15
Full
Jan 23
Last Quarter

Hourly Weather History & Observations

Time (PST) Temp. Windchill Dew Point Humidity Pressure Visibility Wind Dir Wind Speed Gust Speed Precip Events Conditions
12:53 AM 41.0 °F 37.1 °F 9.0 °F 27% 30.32 in 10.0 mi NW 5.8 mph - N/A   Clear
1:53 AM 41.0 °F 37.1 °F 10.0 °F 28% 30.33 in 10.0 mi NW 5.8 mph - N/A   Clear
2:53 AM 44.1 °F - 8.1 °F 23% 30.32 in 10.0 mi Calm Calm - N/A   Clear
3:53 AM 39.0 °F - 10.0 °F 30% 30.33 in 10.0 mi Calm Calm - N/A   Clear
4:53 AM 39.9 °F - 10.0 °F 29% 30.34 in 10.0 mi Calm Calm - N/A   Clear
5:53 AM 37.0 °F - 12.0 °F 36% 30.37 in 10.0 mi Calm Calm - N/A   Clear
6:53 AM 36.0 °F - 12.0 °F 37% 30.39 in 10.0 mi Calm Calm - N/A   Clear
7:53 AM 39.9 °F - 12.0 °F 32% 30.40 in 10.0 mi Calm Calm - N/A   Clear
8:53 AM 46.9 °F - 10.9 °F 23% 30.40 in 10.0 mi Calm Calm - N/A   Clear
9:53 AM 48.0 °F - 10.9 °F 22% 30.42 in 10.0 mi Calm Calm - N/A   Clear
10:53 AM 51.1 °F - 10.9 °F 20% 30.40 in 10.0 mi Calm Calm - N/A   Clear
11:53 AM 53.1 °F - 9.0 °F 17% 30.36 in 10.0 mi Variable 3.5 mph - N/A   Clear
12:53 PM 55.0 °F - 9.0 °F 16% 30.32 in 10.0 mi Calm Calm - N/A   Clear
1:53 PM 57.0 °F - 9.0 °F 15% 30.31 in 10.0 mi Calm Calm - N/A   Clear
2:53 PM 57.9 °F - 9.0 °F 14% 30.29 in 10.0 mi Calm Calm - N/A   Clear
3:53 PM 57.9 °F - 10.0 °F 15% 30.29 in 10.0 mi Calm Calm - N/A   Clear
4:53 PM 55.0 °F - 10.9 °F 17% 30.29 in 10.0 mi Calm Calm - N/A   Clear
5:53 PM 51.1 °F - 12.0 °F 21% 30.31 in 10.0 mi Calm Calm - N/A   Clear
6:53 PM 48.0 °F - 17.1 °F 29% 30.32 in 10.0 mi NW 3.5 mph - N/A   Clear
7:53 PM 45.0 °F - 19.0 °F 36% 30.34 in 10.0 mi Calm Calm - N/A   Clear
8:53 PM 43.0 °F 41.3 °F 19.9 °F 40% 30.34 in 10.0 mi NNW 3.5 mph - N/A   Clear
9:53 PM 41.0 °F 39.0 °F 19.9 °F 43% 30.34 in 10.0 mi NW 3.5 mph - N/A   Clear
10:53 PM 41.0 °F 37.1 °F 19.9 °F 43% 30.33 in 10.0 mi WNW 5.8 mph - N/A   Clear
11:53 PM 39.9 °F 37.8 °F 19.0 °F 43% 30.32 in 10.0 mi WNW 3.5 mph - N/A   Clear